This is the latest recevied weather packets stored in our database for station/object KI4FRU. If no packets are shown the sender has not sent any weather packets the latest 1 day(s).
| Time | Temp. | Humidity | Pressure | Rain* | Wind** | Luminosity | Snow |
|---|---|---|---|---|---|---|---|
| 1778040238 | 15° C | 89% | 1052.6 hPa | 0 mm | - | 0 W/m² | - |
| 1778039934 | 15° C | 89% | 1052.5 hPa | 0 mm | - | 0 W/m² | - |
| 1778039026 | 15.56° C | 87% | 1052.8 hPa | 0 mm | - | 0 W/m² | - |
| 1778038419 | 15.56° C | 86% | 1052.8 hPa | 0 mm | - | 0 W/m² | - |
| 1778037813 | 16.11° C | 84% | 1052.7 hPa | 0 mm | - | 0 W/m² | - |
| 1778037510 | 16.11° C | 82% | 1052.6 hPa | 0 mm | - | 0 W/m² | - |
| 1778036905 | 16.67° C | 82% | 1052.7 hPa | 0 mm | - | 0 W/m² | - |
| 1778036603 | 16.67° C | 79% | 1052.6 hPa | 0 mm | - | 0 W/m² | - |
| 1778036299 | 16.67° C | 80% | 1052.6 hPa | 0 mm | - | 0 W/m² | - |
| 1778035693 | 17.22° C | 77% | 1052.7 hPa | 0 mm | - | 0 W/m² | - |
| 1778035390 | 17.22° C | 76% | 1052.7 hPa | 0 mm | - | 0 W/m² | - |
| 1778035086 | 17.78° C | 76% | 1052.7 hPa | 0 mm | - | 0 W/m² | - |
| 1778034783 | 17.78° C | 76% | 1052.7 hPa | 0 mm | - | 0 W/m² | - |
| 1778034479 | 17.78° C | 76% | 1052.8 hPa | 0 mm | - | 0 W/m² | - |
| 1778034177 | 17.78° C | 75% | 1052.8 hPa | 0 mm | - | 0 W/m² | - |
| 1778033875 | 17.78° C | 76% | 1052.8 hPa | 0 mm | - | 0 W/m² | - |
| 1778033572 | 18.33° C | 76% | 1052.9 hPa | 0 mm | - | 0 W/m² | - |
| 1778033268 | 18.33° C | 75% | 1052.9 hPa | 0 mm | - | 0 W/m² | - |
| 1778032967 | 18.33° C | 76% | 1053.1 hPa | 0 mm | - | 0 W/m² | - |
| 1778032664 | 18.89° C | 71% | 1053 hPa | 0 mm | - | 0 W/m² | - |
| 1778032361 | 18.89° C | 71% | 1053 hPa | 0 mm | - | 0 W/m² | - |
| 1778032058 | 18.89° C | 72% | 1052.9 hPa | 0 mm | - | 0 W/m² | - |
| 1778031754 | 18.89° C | 71% | 1052.9 hPa | 0 mm | - | 0 W/m² | - |
| 1778031452 | 18.89° C | 70% | 1052.7 hPa | 0 mm | - | 0 W/m² | - |
| 1778031149 | 19.44° C | 69% | 1052.8 hPa | 0 mm | - | 0 W/m² | - |
* Rain latest hour (hover to see other rain measurements)
** Current wind speed in m/s (hover to see current wind gust speed)